Tracking 35274 objects as of 10-Sep-2026
HD Live streaming from Space Station
objects crossing your sky now

OBJECT K


OBJECT K is no longer on orbit


NORAD ID: 55257
Int'l Code: 2023-007K
Launch date: January 15, 2023
Source: People's Republic of China (PRC)
Launch site: Taiyaun Space Center, China (TSC)
Decay date: 2025-01-24
Your satellite tracking list
Your tracking list is empty




NASA's NSSDC Master Catalog

Two Line Element Set (TLE):
1 55257U 23007K   25024.10624539  .13106639  24332-5  11531-2 0  9990
2 55257  97.2855 114.7341 0008652 285.3809 163.2877 16.39214062114092
Source of the keplerian elements: AFSPC